sat.trackr.live / text

‹ back to catalog

STARLINK-1653

NORAD 46352 · 2020-062AD

PAYLOAD ACTIVE UNKNOWN

§ Identity

Operator
Country
US
Launch date
2020-09-03
Launch site
AFETR
Launch vehicle
Mass (kg)
RCS (m²)

Purposes: comms

External: N2YO · Heavens-Above · Gunter

§ Orbital elements

Epoch: 2026-05-24T22:29:31.452576Z

Period
91.51 min
Inclination
53.0389°
Eccentricity
0.0007529
Mean motion
15.73585900 rev/d
Perigee alt
343.6 km
Apogee alt
353.7 km
Semi-major
6,726.8 km
B*
7.5743e-4
RAAN
307.0925°
Arg perigee
169.0308°
Mean anomaly
191.0876°
Rev number
31,703

§ Raw data

STARLINK-16531 46352U 20062AD  26144.93716959  .00109038  00000+0  75743-3 0  99952 46352  53.0389 307.0925 0007529 169.0308 191.0876 15.73585900317035

JSON: /api/v1/satellites/46352 · /tle

For live sub-satellite position, see the globe view (requires WebGL).

§ Visibility from observer

Set your observer location to see the next 7 days of passes ≥ 10°. The values pass through the URL so the page stays shareable.

No JS? Fill the form by hand. The geolocation button needs JavaScript.